Time,TemperatureF,DewpointF,PressureIn,WindDirection,WindDirectionDegrees,WindSpeedMPH,WindSpeedGustMPH,Humidity,HourlyPrecipIn,Conditions,Clouds,dailyrainin,SoftwareType,DateUTC
2013-09-10 00:01:00,72.7,66.2,29.93,SW,229,0.0,0.0,80,0.00,,,0.00,Wunderground v.1.15,2013-09-10 05:01:00,
2013-09-10 00:06:00,72.5,66.0,29.93,SW,229,0.0,0.0,80,0.00,,,0.00,Wunderground v.1.15,2013-09-10 05:06:00,
2013-09-10 00:11:00,72.5,66.0,29.93,SW,229,0.0,0.0,80,0.00,,,0.00,Wunderground v.1.15,2013-09-10 05:11:00,
2013-09-10 00:17:00,72.5,66.0,29.93,SW,229,0.0,0.0,80,0.00,,,0.00,Wunderground v.1.15,2013-09-10 05:17:00,
2013-09-10 00:22:00,72.7,66.5,29.93,SW,229,0.0,0.0,81,0.00,,,0.00,Wunderground v.1.15,2013-09-10 05:22:00,
2013-09-10 00:27:00,72.7,66.5,29.93,SW,229,0.0,0.0,81,0.00,,,0.00,Wunderground v.1.15,2013-09-10 05:27:00,
2013-09-10 00:32:00,72.7,66.5,29.93,SW,229,0.0,0.0,81,0.00,,,0.00,Wunderground v.1.15,2013-09-10 05:32:00,
2013-09-10 00:37:00,72.5,66.7,29.94,SW,229,0.0,0.0,82,0.00,,,0.00,Wunderground v.1.15,2013-09-10 05:37:00,
2013-09-10 00:43:00,72.3,66.5,29.94,SW,229,0.0,0.0,82,0.00,,,0.00,Wunderground v.1.15,2013-09-10 05:43:00,
2013-09-10 00:48:00,72.1,66.3,29.94,SW,229,0.0,0.0,82,0.00,,,0.00,Wunderground v.1.15,2013-09-10 05:48:00,
2013-09-10 00:53:00,72.0,66.2,29.94,SW,229,0.0,0.0,82,0.00,,,0.00,Wunderground v.1.15,2013-09-10 05:53:00,
2013-09-10 00:59:00,71.8,66.0,29.94,SW,229,0.0,0.0,82,0.00,,,0.00,Wunderground v.1.15,2013-09-10 05:59:00,
2013-09-10 01:04:00,71.6,65.8,29.94,SW,229,0.0,0.0,82,0.00,,,0.00,Wunderground v.1.15,2013-09-10 06:04:00,
2013-09-10 01:09:00,71.5,65.7,29.94,SW,229,0.0,0.0,82,0.00,,,0.00,Wunderground v.1.15,2013-09-10 06:09:00,
2013-09-10 01:15:00,71.1,65.7,29.94,SW,229,0.0,0.0,83,0.00,,,0.00,Wunderground v.1.15,2013-09-10 06:15:00,
2013-09-10 01:21:00,70.8,65.4,29.94,SW,229,0.0,0.0,83,0.00,,,0.00,Wunderground v.1.15,2013-09-10 06:21:00,
2013-09-10 01:26:00,70.6,65.2,29.94,SW,229,0.0,0.0,83,0.00,,,0.00,Wunderground v.1.15,2013-09-10 06:26:00,
2013-09-10 01:31:00,70.3,64.9,29.94,SW,229,0.0,0.0,83,0.00,,,0.00,Wunderground v.1.15,2013-09-10 06:31:00,
2013-09-10 01:36:00,70.1,64.7,29.95,SW,229,0.0,0.0,83,0.00,,,0.00,Wunderground v.1.15,2013-09-10 06:36:00,
2013-09-10 01:41:00,69.9,64.8,29.95,SW,229,0.0,0.0,84,0.00,,,0.00,Wunderground v.1.15,2013-09-10 06:41:00,
2013-09-10 01:46:00,69.8,65.1,29.95,SW,229,0.0,0.0,85,0.00,,,0.00,Wunderground v.1.15,2013-09-10 06:46:00,
2013-09-10 01:52:00,69.6,65.2,29.95,SW,229,0.0,0.0,86,0.00,,,0.00,Wunderground v.1.15,2013-09-10 06:52:00,
2013-09-10 01:57:00,69.4,65.0,29.95,SW,229,0.0,0.0,86,0.00,,,0.00,Wunderground v.1.15,2013-09-10 06:57:00,
2013-09-10 02:02:00,69.1,64.7,29.95,SW,229,0.0,0.0,86,0.00,,,0.00,Wunderground v.1.15,2013-09-10 07:02:00,
2013-09-10 02:07:00,68.9,64.5,29.95,SW,229,0.0,0.0,86,0.00,,,0.00,Wunderground v.1.15,2013-09-10 07:07:00,
2013-09-10 02:12:00,68.8,64.8,29.95,SW,229,0.0,0.0,87,0.00,,,0.00,Wunderground v.1.15,2013-09-10 07:12:00,
2013-09-10 02:17:00,68.8,65.1,29.95,SW,229,0.0,0.0,88,0.00,,,0.00,Wunderground v.1.15,2013-09-10 07:17:00,
2013-09-10 02:22:00,68.6,64.9,29.95,SW,229,0.0,0.0,88,0.00,,,0.00,Wunderground v.1.15,2013-09-10 07:22:00,
2013-09-10 02:27:00,68.4,64.7,29.95,SW,229,0.0,0.0,88,0.00,,,0.00,Wunderground v.1.15,2013-09-10 07:27:00,
2013-09-10 02:32:00,68.3,64.6,29.95,SW,229,0.0,0.0,88,0.00,,,0.00,Wunderground v.1.15,2013-09-10 07:32:00,
2013-09-10 02:37:00,68.1,64.7,29.95,SW,229,0.0,0.0,89,0.00,,,0.00,Wunderground v.1.15,2013-09-10 07:37:00,
2013-09-10 02:42:00,68.1,64.7,29.95,SW,229,0.0,0.0,89,0.00,,,0.00,Wunderground v.1.15,2013-09-10 07:42:00,
2013-09-10 02:47:00,67.8,64.4,29.95,SW,229,0.0,0.0,89,0.00,,,0.00,Wunderground v.1.15,2013-09-10 07:47:00,
2013-09-10 02:52:00,67.6,64.2,29.96,SW,229,0.0,0.0,89,0.00,,,0.00,Wunderground v.1.15,2013-09-10 07:52:00,
2013-09-10 02:57:00,67.4,64.0,29.96,SW,229,0.0,0.0,89,0.00,,,0.00,Wunderground v.1.15,2013-09-10 07:57:00,
2013-09-10 03:02:00,67.3,63.9,29.96,SW,229,0.0,0.0,89,0.00,,,0.00,Wunderground v.1.15,2013-09-10 08:02:00,
2013-09-10 03:07:00,67.1,63.7,29.97,SW,229,0.0,0.0,89,0.00,,,0.00,Wunderground v.1.15,2013-09-10 08:07:00,
2013-09-10 03:12:00,66.9,63.6,29.97,SW,229,0.0,0.0,89,0.00,,,0.00,Wunderground v.1.15,2013-09-10 08:12:00,
2013-09-10 03:17:00,66.8,63.5,29.97,SW,229,0.0,0.0,89,0.00,,,0.00,Wunderground v.1.15,2013-09-10 08:17:00,
2013-09-10 03:22:00,66.6,63.3,29.97,SW,229,0.0,0.0,89,0.00,,,0.00,Wunderground v.1.15,2013-09-10 08:22:00,
2013-09-10 03:27:00,66.6,63.3,29.97,SW,229,0.0,0.0,89,0.00,,,0.00,Wunderground v.1.15,2013-09-10 08:27:00,
2013-09-10 03:32:00,66.6,63.6,29.97,SW,229,0.0,0.0,90,0.00,,,0.00,Wunderground v.1.15,2013-09-10 08:32:00,
2013-09-10 03:37:00,66.6,63.9,29.97,SW,229,0.0,0.0,91,0.00,,,0.00,Wunderground v.1.15,2013-09-10 08:37:00,
2013-09-10 03:42:00,66.8,64.1,29.97,SW,229,0.0,0.0,91,0.00,,,0.00,Wunderground v.1.15,2013-09-10 08:42:00,
2013-09-10 03:47:00,66.6,63.9,29.97,SW,229,0.0,0.0,91,0.00,,,0.00,Wunderground v.1.15,2013-09-10 08:47:00,
2013-09-10 03:52:00,66.6,63.9,29.97,SW,229,0.0,0.0,91,0.00,,,0.00,Wunderground v.1.15,2013-09-10 08:52:00,
2013-09-10 03:57:00,66.4,63.7,29.97,SW,229,0.0,0.0,91,0.00,,,0.00,Wunderground v.1.15,2013-09-10 08:57:00,
2013-09-10 04:02:00,66.3,63.6,29.97,SW,229,0.0,0.0,91,0.00,,,0.00,Wunderground v.1.15,2013-09-10 09:02:00,
2013-09-10 04:07:00,66.1,63.4,29.97,SW,229,0.0,0.0,91,0.00,,,0.00,Wunderground v.1.15,2013-09-10 09:07:00,
2013-09-10 04:12:00,66.0,63.6,29.97,SW,229,0.0,0.0,92,0.00,,,0.00,Wunderground v.1.15,2013-09-10 09:12:00,
2013-09-10 04:17:00,65.8,63.1,29.97,SW,229,0.0,0.0,91,0.00,,,0.00,Wunderground v.1.15,2013-09-10 09:17:00,
2013-09-10 04:22:00,65.8,63.4,29.98,SW,229,0.0,0.0,92,0.00,,,0.00,Wunderground v.1.15,2013-09-10 09:22:00,
2013-09-10 04:27:00,65.6,63.2,29.98,SW,229,0.0,0.0,92,0.00,,,0.00,Wunderground v.1.15,2013-09-10 09:27:00,
2013-09-10 04:33:00,65.5,63.1,29.98,SW,229,0.0,0.0,92,0.00,,,0.00,Wunderground v.1.15,2013-09-10 09:33:00,
2013-09-10 04:38:00,65.3,62.9,29.99,SW,229,0.0,0.0,92,0.00,,,0.00,Wunderground v.1.15,2013-09-10 09:38:00,
2013-09-10 04:43:00,65.3,62.9,29.99,SW,229,0.0,0.0,92,0.00,,,0.00,Wunderground v.1.15,2013-09-10 09:43:00,
2013-09-10 04:48:00,65.3,62.9,29.99,SW,229,0.0,0.0,92,0.00,,,0.00,Wunderground v.1.15,2013-09-10 09:48:00,
2013-09-10 04:53:00,65.5,63.1,29.99,SW,229,0.0,0.0,92,0.00,,,0.00,Wunderground v.1.15,2013-09-10 09:53:00,
2013-09-10 04:58:00,65.5,63.1,29.99,SW,229,0.0,0.0,92,0.00,,,0.00,Wunderground v.1.15,2013-09-10 09:58:00,
2013-09-10 05:03:00,65.3,62.9,29.99,SW,229,0.0,0.0,92,0.00,,,0.00,Wunderground v.1.15,2013-09-10 10:03:00,
2013-09-10 05:08:00,65.2,62.8,30.00,SW,229,0.0,0.0,92,0.00,,,0.00,Wunderground v.1.15,2013-09-10 10:08:00,
2013-09-10 05:13:00,65.2,63.1,30.00,SW,229,0.0,0.0,93,0.00,,,0.00,Wunderground v.1.15,2013-09-10 10:13:00,
2013-09-10 05:18:00,65.0,62.6,30.00,SW,229,0.0,0.0,92,0.00,,,0.00,Wunderground v.1.15,2013-09-10 10:18:00,
2013-09-10 05:23:00,65.0,62.9,30.00,SW,229,0.0,0.0,93,0.00,,,0.00,Wunderground v.1.15,2013-09-10 10:23:00,
2013-09-10 05:28:00,64.8,62.7,30.00,SW,229,0.0,0.0,93,0.00,,,0.00,Wunderground v.1.15,2013-09-10 10:28:00,
2013-09-10 05:33:00,64.8,62.7,30.00,SW,229,0.0,0.0,93,0.00,,,0.00,Wunderground v.1.15,2013-09-10 10:33:00,
2013-09-10 05:38:00,64.8,62.7,30.01,SW,229,0.0,0.0,93,0.00,,,0.00,Wunderground v.1.15,2013-09-10 10:38:00,
2013-09-10 05:43:00,64.8,62.7,30.01,SW,229,0.0,0.0,93,0.00,,,0.00,Wunderground v.1.15,2013-09-10 10:43:00,
2013-09-10 05:48:00,64.8,62.7,30.01,SW,229,0.0,0.0,93,0.00,,,0.00,Wunderground v.1.15,2013-09-10 10:48:00,
2013-09-10 05:53:00,64.7,62.6,30.01,SW,229,0.0,0.0,93,0.00,,,0.00,Wunderground v.1.15,2013-09-10 10:53:00,
2013-09-10 05:58:00,64.8,62.7,30.01,SW,229,0.0,0.0,93,0.00,,,0.00,Wunderground v.1.15,2013-09-10 10:58:00,
2013-09-10 06:03:00,64.8,63.0,30.01,SW,229,0.0,0.0,94,0.00,,,0.00,Wunderground v.1.15,2013-09-10 11:03:00,
2013-09-10 06:08:00,64.7,62.6,30.01,SW,229,0.0,0.0,93,0.00,,,0.00,Wunderground v.1.15,2013-09-10 11:08:00,
2013-09-10 06:13:00,64.5,62.4,30.01,SW,229,0.0,0.0,93,0.00,,,0.00,Wunderground v.1.15,2013-09-10 11:13:00,
2013-09-10 06:18:00,64.3,62.2,30.01,SW,229,0.0,0.0,93,0.00,,,0.00,Wunderground v.1.15,2013-09-10 11:18:00,
2013-09-10 06:23:00,64.3,62.5,30.03,SW,229,0.0,0.0,94,0.00,,,0.00,Wunderground v.1.15,2013-09-10 11:23:00,
2013-09-10 06:28:00,64.3,62.5,30.03,SW,229,0.0,0.0,94,0.00,,,0.00,Wunderground v.1.15,2013-09-10 11:28:00,
2013-09-10 06:33:00,64.2,62.4,30.03,SW,229,0.0,0.0,94,0.00,,,0.00,Wunderground v.1.15,2013-09-10 11:33:00,
2013-09-10 06:38:00,64.2,62.4,30.03,SW,229,0.0,0.0,94,0.00,,,0.00,Wunderground v.1.15,2013-09-10 11:38:00,
2013-09-10 06:43:00,64.0,62.2,30.03,SW,229,0.0,0.0,94,0.00,,,0.00,Wunderground v.1.15,2013-09-10 11:43:00,
2013-09-10 06:48:00,64.0,62.2,30.03,SW,229,0.0,0.0,94,0.00,,,0.00,Wunderground v.1.15,2013-09-10 11:48:00,
2013-09-10 06:53:00,64.0,62.2,30.04,SW,229,0.0,0.0,94,0.00,,,0.00,Wunderground v.1.15,2013-09-10 11:53:00,
2013-09-10 06:58:00,64.0,62.2,30.04,SW,229,0.0,0.0,94,0.00,,,0.00,Wunderground v.1.15,2013-09-10 11:58:00,
2013-09-10 07:03:00,64.0,62.2,30.04,SW,229,0.0,0.0,94,0.00,,,0.00,Wunderground v.1.15,2013-09-10 12:03:00,
2013-09-10 07:08:00,64.0,62.2,30.04,NNE,26,0.0,0.0,94,0.00,,,0.00,Wunderground v.1.15,2013-09-10 12:08:00,
2013-09-10 07:13:00,63.9,62.1,30.04,NNE,27,0.0,0.0,94,0.00,,,0.00,Wunderground v.1.15,2013-09-10 12:13:00,
2013-09-10 07:18:00,63.9,62.1,30.04,NNE,27,0.0,0.0,94,0.00,,,0.00,Wunderground v.1.15,2013-09-10 12:18:00,
2013-09-10 07:23:00,63.9,62.1,30.05,NNE,26,0.0,0.0,94,0.00,,,0.00,Wunderground v.1.15,2013-09-10 12:23:00,
2013-09-10 07:28:00,63.9,62.1,30.05,NNE,27,0.0,0.0,94,0.00,,,0.00,Wunderground v.1.15,2013-09-10 12:28:00,
2013-09-10 07:33:00,63.9,62.1,30.05,NNE,27,0.0,0.0,94,0.00,,,0.00,Wunderground v.1.15,2013-09-10 12:33:00,
2013-09-10 07:38:00,64.0,62.2,30.06,NNE,26,0.0,0.0,94,0.00,,,0.00,Wunderground v.1.15,2013-09-10 12:38:00,
2013-09-10 07:43:00,64.5,63.0,30.06,NNE,27,0.0,0.0,95,0.00,,,0.00,Wunderground v.1.15,2013-09-10 12:43:00,
2013-09-10 07:48:00,65.0,63.5,30.06,NNE,26,0.0,0.0,95,0.00,,,0.00,Wunderground v.1.15,2013-09-10 12:48:00,
2013-09-10 07:53:00,65.5,64.0,30.06,NNE,27,0.0,0.0,95,0.00,,,0.00,Wunderground v.1.15,2013-09-10 12:53:00,
2013-09-10 07:59:00,65.8,64.3,30.06,NNE,26,0.0,0.0,95,0.00,,,0.00,Wunderground v.1.15,2013-09-10 12:59:00,
2013-09-10 08:04:00,66.3,64.8,30.06,NNE,26,0.0,0.0,95,0.00,,,0.00,Wunderground v.1.15,2013-09-10 13:04:00,
2013-09-10 08:09:00,66.8,65.3,30.06,NNE,26,0.0,0.0,95,0.00,,,0.00,Wunderground v.1.15,2013-09-10 13:09:00,
2013-09-10 08:14:00,67.3,65.8,30.06,NNE,26,0.0,0.0,95,0.00,,,0.00,Wunderground v.1.15,2013-09-10 13:14:00,
2013-09-10 08:19:00,67.8,66.3,30.06,NNE,26,0.0,0.0,95,0.00,,,0.00,Wunderground v.1.15,2013-09-10 13:19:00,
2013-09-10 08:24:00,68.3,67.1,30.06,NNE,27,0.0,0.0,96,0.00,,,0.00,Wunderground v.1.15,2013-09-10 13:24:00,
2013-09-10 08:29:00,68.8,67.3,30.06,NNE,27,0.0,0.0,95,0.00,,,0.00,Wunderground v.1.15,2013-09-10 13:29:00,
2013-09-10 08:34:00,69.6,68.1,30.06,NNE,27,0.0,0.0,95,0.00,,,0.00,Wunderground v.1.15,2013-09-10 13:34:00,
2013-09-10 08:39:00,70.3,68.2,30.06,NNE,27,0.0,0.0,93,0.00,,,0.00,Wunderground v.1.15,2013-09-10 13:39:00,
2013-09-10 08:44:00,71.1,68.3,30.06,NNE,27,0.0,0.0,91,0.00,,,0.00,Wunderground v.1.15,2013-09-10 13:44:00,
2013-09-10 08:49:00,71.8,67.7,30.06,NNE,27,0.0,1.0,87,0.00,,,0.00,Wunderground v.1.15,2013-09-10 13:49:00,
2013-09-10 08:54:00,72.5,67.0,30.07,NNE,27,0.0,1.0,83,0.00,,,0.00,Wunderground v.1.15,2013-09-10 13:54:00,
2013-09-10 08:59:00,73.5,65.8,30.07,WSW,247,0.0,1.0,77,0.00,,,0.00,Wunderground v.1.15,2013-09-10 13:59:00,
2013-09-10 09:04:00,74.6,65.4,30.07,SE,144,1.0,3.0,73,0.00,,,0.00,Wunderground v.1.15,2013-09-10 14:04:00,
2013-09-10 09:09:00,75.8,65.7,30.07,SSE,155,0.0,3.0,71,0.00,,,0.00,Wunderground v.1.15,2013-09-10 14:09:00,
2013-09-10 09:14:00,76.7,66.2,30.07,SSE,155,0.0,3.0,70,0.00,,,0.00,Wunderground v.1.15,2013-09-10 14:14:00,
2013-09-10 09:19:00,77.2,65.8,30.07,SSE,155,0.0,2.0,68,0.00,,,0.00,Wunderground v.1.15,2013-09-10 14:19:00,
2013-09-10 09:24:00,77.6,65.3,30.07,SE,143,3.0,5.0,66,0.00,,,0.00,Wunderground v.1.15,2013-09-10 14:24:00,
2013-09-10 09:29:00,78.1,65.8,30.07,SE,135,0.0,2.0,66,0.00,,,0.00,Wunderground v.1.15,2013-09-10 14:29:00,
2013-09-10 09:34:00,78.8,66.0,30.07,SW,217,1.0,3.0,65,0.00,,,0.00,Wunderground v.1.15,2013-09-10 14:34:00,
2013-09-10 09:39:00,79.8,66.1,30.08,SW,217,1.0,1.0,63,0.00,,,0.00,Wunderground v.1.15,2013-09-10 14:39:00,
2013-09-10 09:44:00,80.7,65.0,30.08,South,183,0.0,3.0,59,0.00,,,0.00,Wunderground v.1.15,2013-09-10 14:44:00,
2013-09-10 09:49:00,81.2,65.0,30.08,South,182,0.0,2.0,58,0.00,,,0.00,Wunderground v.1.15,2013-09-10 14:49:00,
2013-09-10 09:54:00,81.6,64.9,30.08,South,183,0.0,4.0,57,0.00,,,0.00,Wunderground v.1.15,2013-09-10 14:54:00,
2013-09-10 09:59:00,82.2,65.4,30.08,SSW,192,0.0,1.0,57,0.00,,,0.00,Wunderground v.1.15,2013-09-10 14:59:00,
2013-09-10 10:04:00,83.0,65.2,30.08,SSW,194,0.0,1.0,55,0.00,,,0.00,Wunderground v.1.15,2013-09-10 15:04:00,
2013-09-10 10:09:00,83.6,65.2,30.07,SW,228,0.0,5.0,54,0.00,,,0.00,Wunderground v.1.15,2013-09-10 15:09:00,
2013-09-10 10:14:00,84.1,64.6,30.07,ENE,65,0.0,5.0,52,0.00,,,0.00,Wunderground v.1.15,2013-09-10 15:14:00,
2013-09-10 10:19:00,84.3,63.6,30.07,SSW,196,1.0,2.0,50,0.00,,,0.00,Wunderground v.1.15,2013-09-10 15:19:00,
2013-09-10 10:24:00,84.5,64.4,30.07,SSW,209,0.0,6.0,51,0.00,,,0.00,Wunderground v.1.15,2013-09-10 15:24:00,
2013-09-10 10:30:00,84.9,64.8,30.07,South,190,0.0,4.0,51,0.00,,,0.00,Wunderground v.1.15,2013-09-10 15:30:00,
2013-09-10 10:35:00,85.3,65.7,30.07,South,190,0.0,4.0,52,0.00,,,0.00,Wunderground v.1.15,2013-09-10 15:35:00,
2013-09-10 10:40:00,86.1,65.9,30.07,South,190,0.0,1.0,51,0.00,,,0.00,Wunderground v.1.15,2013-09-10 15:40:00,
2013-09-10 10:45:00,86.3,64.3,30.07,South,175,0.0,4.0,48,0.00,,,0.00,Wunderground v.1.15,2013-09-10 15:45:00,
2013-09-10 10:50:00,86.3,64.9,30.07,South,183,0.0,2.0,49,0.00,,,0.00,Wunderground v.1.15,2013-09-10 15:50:00,
2013-09-10 10:55:00,86.5,65.7,30.07,SSW,205,0.0,5.0,50,0.00,,,0.00,Wunderground v.1.15,2013-09-10 15:55:00,
2013-09-10 11:00:00,86.5,65.1,30.07,SW,220,0.0,2.0,49,0.00,,,0.00,Wunderground v.1.15,2013-09-10 16:00:00,
2013-09-10 11:05:00,87.2,65.1,30.07,SW,220,0.0,2.0,48,0.00,,,0.00,Wunderground v.1.15,2013-09-10 16:05:00,
2013-09-10 11:10:00,87.4,66.5,30.07,North,355,0.0,1.0,50,0.00,,,0.00,Wunderground v.1.15,2013-09-10 16:10:00,
2013-09-10 11:15:00,88.2,67.8,30.07,North,355,0.0,1.0,51,0.00,,,0.00,Wunderground v.1.15,2013-09-10 16:15:00,
2013-09-10 11:20:00,88.8,67.2,30.07,North,355,0.0,1.0,49,0.00,,,0.00,Wunderground v.1.15,2013-09-10 16:20:00,
2013-09-10 11:25:00,89.0,66.8,30.07,South,184,0.0,2.0,48,0.00,,,0.00,Wunderground v.1.15,2013-09-10 16:25:00,
2013-09-10 11:30:00,88.8,65.4,30.07,SSW,206,2.0,4.0,46,0.00,,,0.00,Wunderground v.1.15,2013-09-10 16:30:00,
2013-09-10 11:35:00,88.8,66.0,30.07,NE,48,0.0,4.0,47,0.00,,,0.00,Wunderground v.1.15,2013-09-10 16:35:00,
2013-09-10 11:40:00,89.3,65.2,30.07,SSE,159,0.0,1.0,45,0.00,,,0.00,Wunderground v.1.15,2013-09-10 16:40:00,
2013-09-10 11:45:00,89.3,64.5,30.07,SSW,205,1.0,5.0,44,0.00,,,0.00,Wunderground v.1.15,2013-09-10 16:45:00,
2013-09-10 11:50:00,89.3,65.2,30.07,SE,143,1.0,3.0,45,0.00,,,0.00,Wunderground v.1.15,2013-09-10 16:50:00,
2013-09-10 11:55:00,89.3,64.5,30.07,SSE,159,0.0,3.0,44,0.00,,,0.00,Wunderground v.1.15,2013-09-10 16:55:00,
2013-09-10 12:00:00,89.5,64.7,30.07,SSW,209,0.0,6.0,44,0.00,,,0.00,Wunderground v.1.15,2013-09-10 17:00:00,
2013-09-10 12:05:00,89.5,65.4,30.07,SSW,205,0.0,6.0,45,0.00,,,0.00,Wunderground v.1.15,2013-09-10 17:05:00,
2013-09-10 12:10:00,89.7,64.2,30.06,NNW,333,5.0,5.0,43,0.00,,,0.00,Wunderground v.1.15,2013-09-10 17:10:00,
2013-09-10 12:15:00,89.7,64.2,30.06,SSW,212,0.0,1.0,43,0.00,,,0.00,Wunderground v.1.15,2013-09-10 17:15:00,
2013-09-10 12:20:00,89.9,64.4,30.06,SSW,192,3.0,5.0,43,0.00,,,0.00,Wunderground v.1.15,2013-09-10 17:20:00,
2013-09-10 12:25:00,89.5,63.4,30.06,SSW,194,0.0,1.0,42,0.00,,,0.00,Wunderground v.1.15,2013-09-10 17:25:00,
2013-09-10 12:30:00,89.3,63.9,30.06,SE,140,0.0,2.0,43,0.00,,,0.00,Wunderground v.1.15,2013-09-10 17:30:00,
2013-09-10 12:35:00,89.5,64.0,30.06,SSW,213,0.0,1.0,43,0.00,,,0.00,Wunderground v.1.15,2013-09-10 17:35:00,
2013-09-10 12:41:00,89.9,63.0,30.06,South,171,0.0,2.0,41,0.00,,,0.00,Wunderground v.1.15,2013-09-10 17:41:00,
2013-09-10 12:46:00,90.3,66.1,30.06,SW,219,0.0,0.0,45,0.00,,,0.00,Wunderground v.1.15,2013-09-10 17:46:00,
2013-09-10 12:51:00,90.3,63.4,30.06,South,186,0.0,3.0,41,0.00,,,0.00,Wunderground v.1.15,2013-09-10 17:51:00,
2013-09-10 12:56:00,90.3,64.8,30.06,SSE,165,0.0,2.0,43,0.00,,,0.00,Wunderground v.1.15,2013-09-10 17:56:00,
2013-09-10 13:01:00,90.5,62.9,30.06,South,174,2.0,5.0,40,0.00,,,0.00,Wunderground v.1.15,2013-09-10 18:01:00,
2013-09-10 13:06:00,90.7,65.8,30.05,South,183,1.0,2.0,44,0.00,,,0.00,Wunderground v.1.15,2013-09-10 18:06:00,
2013-09-10 13:11:00,90.7,63.1,30.05,SSE,165,3.0,7.0,40,0.00,,,0.00,Wunderground v.1.15,2013-09-10 18:11:00,
2013-09-10 13:16:00,91.0,64.0,30.05,SSE,157,0.0,3.0,41,0.00,,,0.00,Wunderground v.1.15,2013-09-10 18:16:00,
2013-09-10 13:21:00,91.4,64.4,30.05,South,178,0.0,5.0,41,0.00,,,0.00,Wunderground v.1.15,2013-09-10 18:21:00,
2013-09-10 13:26:00,91.6,63.9,30.05,SSE,157,0.0,1.0,40,0.00,,,0.00,Wunderground v.1.15,2013-09-10 18:26:00,
2013-09-10 13:31:00,91.6,62.4,30.05,SSE,152,0.0,4.0,38,0.00,,,0.00,Wunderground v.1.15,2013-09-10 18:31:00,
2013-09-10 13:36:00,91.8,63.3,30.05,South,169,0.0,0.0,39,0.00,,,0.00,Wunderground v.1.15,2013-09-10 18:36:00,
2013-09-10 13:41:00,92.1,62.8,30.05,SSW,209,1.0,4.0,38,0.00,,,0.00,Wunderground v.1.15,2013-09-10 18:41:00,
2013-09-10 13:46:00,91.8,61.8,30.05,ESE,119,0.0,1.0,37,0.00,,,0.00,Wunderground v.1.15,2013-09-10 18:46:00,
2013-09-10 13:51:00,91.8,61.0,30.05,SSW,209,2.0,6.0,36,0.00,,,0.00,Wunderground v.1.15,2013-09-10 18:51:00,
2013-09-10 13:56:00,91.6,61.6,30.05,SSE,156,4.0,4.0,37,0.00,,,0.00,Wunderground v.1.15,2013-09-10 18:56:00,
2013-09-10 14:01:00,91.8,61.8,30.05,SW,218,8.0,8.0,37,0.00,,,0.00,Wunderground v.1.15,2013-09-10 19:01:00,
2013-09-10 14:06:00,91.8,61.8,30.04,South,171,1.0,2.0,37,0.00,,,0.00,Wunderground v.1.15,2013-09-10 19:06:00,
2013-09-10 14:11:00,92.1,62.1,30.04,SSW,194,11.0,11.0,37,0.00,,,0.00,Wunderground v.1.15,2013-09-10 19:11:00,
2013-09-10 14:16:00,92.1,60.5,30.04,South,173,0.0,1.0,35,0.00,,,0.00,Wunderground v.1.15,2013-09-10 19:16:00,
2013-09-10 14:21:00,92.1,60.5,30.04,South,169,0.0,9.0,35,0.00,,,0.00,Wunderground v.1.15,2013-09-10 19:21:00,
2013-09-10 14:26:00,92.3,59.0,30.04,SSW,198,1.0,2.0,33,0.00,,,0.00,Wunderground v.1.15,2013-09-10 19:26:00,
2013-09-10 14:31:00,92.3,59.9,30.04,SSE,168,0.0,7.0,34,0.00,,,0.00,Wunderground v.1.15,2013-09-10 19:31:00,
2013-09-10 14:37:00,92.7,61.0,30.03,SW,216,1.0,1.0,35,0.00,,,0.00,Wunderground v.1.15,2013-09-10 19:37:00,
2013-09-10 14:42:00,93.4,61.7,30.03,West,261,0.0,1.0,35,0.00,,,0.00,Wunderground v.1.15,2013-09-10 19:42:00,
2013-09-10 14:47:00,93.2,59.8,30.03,South,189,0.0,2.0,33,0.00,,,0.00,Wunderground v.1.15,2013-09-10 19:47:00,
2013-09-10 14:52:00,93.2,59.0,30.02,SW,217,0.0,3.0,32,0.00,,,0.00,Wunderground v.1.15,2013-09-10 19:52:00,
2013-09-10 14:57:00,92.9,61.2,30.02,South,178,0.0,2.0,35,0.00,,,0.00,Wunderground v.1.15,2013-09-10 19:57:00,
2013-09-10 15:02:00,92.7,59.4,30.02,South,178,0.0,4.0,33,0.00,,,0.00,Wunderground v.1.15,2013-09-10 20:02:00,
2013-09-10 15:07:00,93.2,61.5,30.02,SSE,166,5.0,5.0,35,0.00,,,0.00,Wunderground v.1.15,2013-09-10 20:07:00,
2013-09-10 15:12:00,92.9,61.2,30.02,SSE,161,2.0,9.0,35,0.00,,,0.00,Wunderground v.1.15,2013-09-10 20:12:00,
2013-09-10 15:17:00,92.9,61.2,30.02,SE,140,0.0,1.0,35,0.00,,,0.00,Wunderground v.1.15,2013-09-10 20:17:00,
2013-09-10 15:22:00,93.2,59.0,30.02,South,188,3.0,3.0,32,0.00,,,0.00,Wunderground v.1.15,2013-09-10 20:22:00,
2013-09-10 15:27:00,93.4,62.5,30.02,SSE,163,4.0,4.0,36,0.00,,,0.00,Wunderground v.1.15,2013-09-10 20:27:00,
2013-09-10 15:32:00,92.9,60.4,30.02,SE,145,0.0,7.0,34,0.00,,,0.00,Wunderground v.1.15,2013-09-10 20:32:00,
2013-09-10 15:37:00,92.9,58.7,30.02,SSE,148,3.0,3.0,32,0.00,,,0.00,Wunderground v.1.15,2013-09-10 20:37:00,
2013-09-10 15:42:00,93.2,60.7,30.02,South,189,0.0,6.0,34,0.00,,,0.00,Wunderground v.1.15,2013-09-10 20:42:00,
2013-09-10 15:47:00,92.9,58.7,30.02,SW,217,0.0,7.0,32,0.00,,,0.00,Wunderground v.1.15,2013-09-10 20:47:00,
2013-09-10 15:52:00,92.9,59.6,30.01,SSW,205,0.0,7.0,33,0.00,,,0.00,Wunderground v.1.15,2013-09-10 20:52:00,
2013-09-10 15:57:00,92.7,59.4,30.01,SSE,157,6.0,7.0,33,0.00,,,0.00,Wunderground v.1.15,2013-09-10 20:57:00,
2013-09-10 16:02:00,92.3,57.3,30.01,SSE,148,1.0,9.0,31,0.00,,,0.00,Wunderground v.1.15,2013-09-10 21:02:00,
2013-09-10 16:07:00,92.3,59.9,30.01,East,98,0.0,3.0,34,0.00,,,0.00,Wunderground v.1.15,2013-09-10 21:07:00,
2013-09-10 16:12:00,92.5,58.4,30.01,SE,142,0.0,7.0,32,0.00,,,0.00,Wunderground v.1.15,2013-09-10 21:12:00,
2013-09-10 16:17:00,92.5,57.5,30.01,SSW,192,0.0,1.0,31,0.00,,,0.00,Wunderground v.1.15,2013-09-10 21:17:00,
2013-09-10 16:22:00,92.5,56.6,30.01,South,182,0.0,6.0,30,0.00,,,0.00,Wunderground v.1.15,2013-09-10 21:22:00,
2013-09-10 16:27:00,92.5,58.4,30.01,SSW,207,0.0,4.0,32,0.00,,,0.00,Wunderground v.1.15,2013-09-10 21:27:00,
2013-09-10 16:32:00,92.1,56.2,30.01,East,93,0.0,6.0,30,0.00,,,0.00,Wunderground v.1.15,2013-09-10 21:32:00,
2013-09-10 16:37:00,91.6,56.7,30.01,SW,217,0.0,4.0,31,0.00,,,0.00,Wunderground v.1.15,2013-09-10 21:37:00,
2013-09-10 16:42:00,91.8,56.9,30.01,SSW,205,0.0,4.0,31,0.00,,,0.00,Wunderground v.1.15,2013-09-10 21:42:00,
2013-09-10 16:47:00,91.6,56.7,30.01,SW,229,0.0,1.0,31,0.00,,,0.00,Wunderground v.1.15,2013-09-10 21:47:00,
2013-09-10 16:52:00,91.6,58.4,30.01,South,175,2.0,5.0,33,0.00,,,0.00,Wunderground v.1.15,2013-09-10 21:52:00,
2013-09-10 16:57:00,91.4,59.9,30.01,SSW,211,0.0,1.0,35,0.00,,,0.00,Wunderground v.1.15,2013-09-10 21:57:00,
2013-09-10 17:02:00,91.4,61.5,30.01,SSW,211,0.0,1.0,37,0.00,,,0.00,Wunderground v.1.15,2013-09-10 22:02:00,
2013-09-10 17:07:00,91.2,57.2,30.00,SSW,193,0.0,1.0,32,0.00,,,0.00,Wunderground v.1.15,2013-09-10 22:07:00,
2013-09-10 17:12:00,91.2,58.9,30.00,SSW,192,0.0,2.0,34,0.00,,,0.00,Wunderground v.1.15,2013-09-10 22:12:00,
2013-09-10 17:18:00,91.2,59.7,30.00,SSW,192,0.0,0.0,35,0.00,,,0.00,Wunderground v.1.15,2013-09-10 22:18:00,
2013-09-10 17:23:00,91.0,60.3,30.00,SSW,192,0.0,0.0,36,0.00,,,0.00,Wunderground v.1.15,2013-09-10 22:23:00,
2013-09-10 17:28:00,90.7,60.8,30.00,SSW,192,0.0,0.0,37,0.00,,,0.00,Wunderground v.1.15,2013-09-10 22:28:00,
2013-09-10 17:33:00,90.5,63.6,30.00,SSW,192,0.0,0.0,41,0.00,,,0.00,Wunderground v.1.15,2013-09-10 22:33:00,
2013-09-10 17:38:00,90.1,61.1,30.00,SSW,192,1.0,1.0,38,0.00,,,0.00,Wunderground v.1.15,2013-09-10 22:38:00,
2013-09-10 17:43:00,90.1,61.8,30.00,SSW,192,0.0,1.0,39,0.00,,,0.00,Wunderground v.1.15,2013-09-10 22:43:00,
2013-09-10 17:48:00,89.7,62.9,30.00,SSW,192,0.0,0.0,41,0.00,,,0.00,Wunderground v.1.15,2013-09-10 22:48:00,
2013-09-10 17:53:00,89.3,64.5,30.00,SSW,192,0.0,0.0,44,0.00,,,0.00,Wunderground v.1.15,2013-09-10 22:53:00,
2013-09-10 17:58:00,88.4,64.4,30.00,SSW,192,0.0,0.0,45,0.00,,,0.00,Wunderground v.1.15,2013-09-10 22:58:00,
2013-09-10 18:03:00,87.8,64.4,30.00,SSW,192,0.0,0.0,46,0.00,,,0.00,Wunderground v.1.15,2013-09-10 23:03:00,
2013-09-10 18:08:00,87.0,64.9,30.00,SSW,192,0.0,0.0,48,0.00,,,0.00,Wunderground v.1.15,2013-09-10 23:08:00,
2013-09-10 18:13:00,86.3,65.5,30.00,SSW,192,0.0,0.0,50,0.00,,,0.00,Wunderground v.1.15,2013-09-10 23:13:00,
2013-09-10 18:18:00,85.7,66.0,30.00,SSW,192,0.0,0.0,52,0.00,,,0.00,Wunderground v.1.15,2013-09-10 23:18:00,
2013-09-10 18:23:00,85.1,66.0,30.01,SSW,192,0.0,0.0,53,0.00,,,0.00,Wunderground v.1.15,2013-09-10 23:23:00,
2013-09-10 18:28:00,84.3,65.3,30.01,SSW,192,0.0,0.0,53,0.00,,,0.00,Wunderground v.1.15,2013-09-10 23:28:00,
2013-09-10 18:33:00,83.6,66.8,30.01,SSW,192,0.0,0.0,57,0.00,,,0.00,Wunderground v.1.15,2013-09-10 23:33:00,
2013-09-10 18:38:00,83.2,66.9,30.01,SSW,192,0.0,0.0,58,0.00,,,0.00,Wunderground v.1.15,2013-09-10 23:38:00,
2013-09-10 18:43:00,82.6,66.8,30.01,SSW,193,0.0,0.0,59,0.00,,,0.00,Wunderground v.1.15,2013-09-10 23:43:00,
2013-09-10 18:48:00,82.0,67.2,30.01,SSW,193,0.0,0.0,61,0.00,,,0.00,Wunderground v.1.15,2013-09-10 23:48:00,
2013-09-10 18:53:00,81.6,66.8,30.01,SSW,193,0.0,0.0,61,0.00,,,0.00,Wunderground v.1.15,2013-09-10 23:53:00,
2013-09-10 18:59:00,81.1,66.8,30.01,SSW,193,0.0,0.0,62,0.00,,,0.00,Wunderground v.1.15,2013-09-10 23:59:00,
2013-09-10 19:04:00,80.7,66.5,30.01,SSW,193,0.0,0.0,62,0.00,,,0.00,Wunderground v.1.15,2013-09-11 00:04:00,
2013-09-10 19:09:00,80.3,67.5,30.02,SSW,193,0.0,0.0,65,0.00,,,0.00,Wunderground v.1.15,2013-09-11 00:09:00,
2013-09-10 19:13:00,79.8,67.0,30.02,SSW,193,0.0,0.0,65,0.00,,,0.00,Wunderground v.1.15,2013-09-11 00:13:00,
2013-09-10 19:19:00,79.2,66.9,30.02,SSW,193,0.0,0.0,66,0.00,,,0.00,Wunderground v.1.15,2013-09-11 00:19:00,
2013-09-10 19:24:00,78.8,66.5,30.02,SSW,193,0.0,0.0,66,0.00,,,0.00,Wunderground v.1.15,2013-09-11 00:24:00,
2013-09-10 19:29:00,78.5,67.1,30.02,SSW,193,0.0,0.0,68,0.00,,,0.00,Wunderground v.1.15,2013-09-11 00:29:00,
2013-09-10 19:34:00,77.9,66.5,30.02,SSW,193,0.0,0.0,68,0.00,,,0.00,Wunderground v.1.15,2013-09-11 00:34:00,
2013-09-10 19:39:00,77.4,66.4,30.02,SSW,193,0.0,0.0,69,0.00,,,0.00,Wunderground v.1.15,2013-09-11 00:39:00,
2013-09-10 19:44:00,77.0,66.5,30.02,SSW,193,0.0,0.0,70,0.00,,,0.00,Wunderground v.1.15,2013-09-11 00:44:00,
2013-09-10 19:49:00,76.7,66.6,30.02,SSW,193,0.0,0.0,71,0.00,,,0.00,Wunderground v.1.15,2013-09-11 00:49:00,
2013-09-10 19:54:00,76.1,66.0,30.03,SSW,193,0.0,0.0,71,0.00,,,0.00,Wunderground v.1.15,2013-09-11 00:54:00,
2013-09-10 19:59:00,75.8,66.1,30.03,SSW,193,0.0,0.0,72,0.00,,,0.00,Wunderground v.1.15,2013-09-11 00:59:00,
2013-09-10 20:04:00,75.3,65.6,30.03,SSW,193,0.0,0.0,72,0.00,,,0.00,Wunderground v.1.15,2013-09-11 01:04:00,
2013-09-10 20:09:00,74.9,65.7,30.03,SSW,193,0.0,0.0,73,0.00,,,0.00,Wunderground v.1.15,2013-09-11 01:09:00,
2013-09-10 20:14:00,74.6,65.8,30.03,SSW,193,0.0,0.0,74,0.00,,,0.00,Wunderground v.1.15,2013-09-11 01:14:00,
2013-09-10 20:19:00,74.2,65.4,30.03,SSW,193,0.0,0.0,74,0.00,,,0.00,Wunderground v.1.15,2013-09-11 01:19:00,
2013-09-10 20:24:00,73.9,65.5,30.03,SSW,193,0.0,0.0,75,0.00,,,0.00,Wunderground v.1.15,2013-09-11 01:24:00,
2013-09-10 20:29:00,73.5,65.1,30.03,SSW,193,0.0,0.0,75,0.00,,,0.00,Wunderground v.1.15,2013-09-11 01:29:00,
2013-09-10 20:34:00,73.2,65.6,30.03,SSW,193,0.0,0.0,77,0.00,,,0.00,Wunderground v.1.15,2013-09-11 01:34:00,
2013-09-10 20:39:00,72.8,65.2,30.04,SSW,193,0.0,0.0,77,0.00,,,0.00,Wunderground v.1.15,2013-09-11 01:39:00,
2013-09-10 20:44:00,72.5,65.6,30.04,SSW,193,0.0,0.0,79,0.00,,,0.00,Wunderground v.1.15,2013-09-11 01:44:00,
2013-09-10 20:49:00,72.3,65.4,30.04,SSW,193,0.0,0.0,79,0.00,,,0.00,Wunderground v.1.15,2013-09-11 01:49:00,
2013-09-10 20:54:00,72.1,65.6,30.05,SSW,193,0.0,0.0,80,0.00,,,0.00,Wunderground v.1.15,2013-09-11 01:54:00,
2013-09-10 20:59:00,71.8,65.3,30.05,SSW,193,0.0,0.0,80,0.00,,,0.00,Wunderground v.1.15,2013-09-11 01:59:00,
2013-09-10 21:04:00,71.6,65.5,30.05,SSW,193,0.0,0.0,81,0.00,,,0.00,Wunderground v.1.15,2013-09-11 02:04:00,
2013-09-10 21:10:00,71.5,65.4,30.05,SSW,193,0.0,0.0,81,0.00,,,0.00,Wunderground v.1.15,2013-09-11 02:10:00,
2013-09-10 21:15:00,71.3,65.2,30.05,SSW,193,0.0,0.0,81,0.00,,,0.00,Wunderground v.1.15,2013-09-11 02:15:00,
2013-09-10 21:20:00,70.9,64.8,30.05,SSW,193,0.0,0.0,81,0.00,,,0.00,Wunderground v.1.15,2013-09-11 02:20:00,
2013-09-10 21:25:00,70.8,64.7,30.04,SSW,193,0.0,0.0,81,0.00,,,0.00,Wunderground v.1.15,2013-09-11 02:25:00,
2013-09-10 21:30:00,70.4,64.3,30.04,SSW,193,0.0,0.0,81,0.00,,,0.00,Wunderground v.1.15,2013-09-11 02:30:00,
2013-09-10 21:35:00,70.1,64.0,30.04,SSW,193,0.0,0.0,81,0.00,,,0.00,Wunderground v.1.15,2013-09-11 02:35:00,
2013-09-10 21:40:00,69.9,64.2,30.05,SSW,193,0.0,0.0,82,0.00,,,0.00,Wunderground v.1.15,2013-09-11 02:40:00,
2013-09-10 21:45:00,69.8,64.1,30.05,SSW,193,0.0,0.0,82,0.00,,,0.00,Wunderground v.1.15,2013-09-11 02:45:00,
2013-09-10 21:50:00,69.6,63.9,30.05,SSW,193,0.0,0.0,82,0.00,,,0.00,Wunderground v.1.15,2013-09-11 02:50:00,
2013-09-10 21:55:00,69.3,63.9,30.06,SSW,193,0.0,0.0,83,0.00,,,0.00,Wunderground v.1.15,2013-09-11 02:55:00,
2013-09-10 22:00:00,69.1,63.7,30.06,SSW,193,0.0,0.0,83,0.00,,,0.00,Wunderground v.1.15,2013-09-11 03:00:00,
2013-09-10 22:05:00,68.9,63.5,30.06,SSW,193,0.0,0.0,83,0.00,,,0.00,Wunderground v.1.15,2013-09-11 03:05:00,
2013-09-10 22:06:00,67.8,64.1,30.06,SSW,193,0.0,0.0,88,0.00,,,0.00,Wunderground v.1.15,2013-09-11 03:06:00,
2013-09-10 22:07:00,67.8,64.1,30.06,SSW,193,0.0,0.0,88,0.00,,,0.00,Wunderground v.1.15,2013-09-11 03:07:00,
2013-09-10 22:08:00,67.6,63.9,30.06,SSW,193,0.0,0.0,88,0.00,,,0.00,Wunderground v.1.15,2013-09-11 03:08:00,
2013-09-10 22:09:00,67.6,63.9,30.06,SSW,193,0.0,0.0,88,0.00,,,0.00,Wunderground v.1.15,2013-09-11 03:09:00,
2013-09-10 22:10:00,68.9,63.9,30.06,SSW,193,0.0,0.0,84,0.00,,,0.00,Wunderground v.1.15,2013-09-11 03:10:00,
2013-09-10 22:11:00,67.6,63.9,30.06,SSW,193,0.0,0.0,88,0.00,,,0.00,Wunderground v.1.15,2013-09-11 03:11:00,
2013-09-10 22:12:00,67.6,63.9,30.06,SSW,193,0.0,0.0,88,0.00,,,0.00,Wunderground v.1.15,2013-09-11 03:12:00,
2013-09-10 22:13:00,67.6,63.9,30.06,SSW,193,0.0,0.0,88,0.00,,,0.00,Wunderground v.1.15,2013-09-11 03:13:00,
2013-09-10 22:14:00,67.6,63.9,30.06,SSW,193,0.0,0.0,88,0.00,,,0.00,Wunderground v.1.15,2013-09-11 03:14:00,
2013-09-10 22:15:00,68.8,63.8,30.06,SSW,193,0.0,0.0,84,0.00,,,0.00,Wunderground v.1.15,2013-09-11 03:15:00,
2013-09-10 22:16:00,67.4,63.7,30.06,SSW,193,0.0,0.0,88,0.00,,,0.00,Wunderground v.1.15,2013-09-11 03:16:00,
2013-09-10 22:17:00,67.4,63.7,30.06,SSW,193,0.0,0.0,88,0.00,,,0.00,Wunderground v.1.15,2013-09-11 03:17:00,
2013-09-10 22:18:00,67.4,63.7,30.06,SSW,193,0.0,0.0,88,0.00,,,0.00,Wunderground v.1.15,2013-09-11 03:18:00,
2013-09-10 22:19:00,67.4,63.7,30.06,SSW,193,0.0,0.0,88,0.00,,,0.00,Wunderground v.1.15,2013-09-11 03:19:00,
2013-09-10 22:20:00,68.6,63.9,30.06,SSW,193,0.0,0.0,85,0.00,,,0.00,Wunderground v.1.15,2013-09-11 03:20:00,
2013-09-10 22:21:00,67.4,64.0,30.06,SSW,193,0.0,0.0,89,0.00,,,0.00,Wunderground v.1.15,2013-09-11 03:21:00,
2013-09-10 22:22:00,67.4,64.0,30.06,SSW,193,0.0,0.0,89,0.00,,,0.00,Wunderground v.1.15,2013-09-11 03:22:00,
2013-09-10 22:25:00,68.4,63.7,30.06,SSW,193,0.0,0.0,85,0.00,,,0.00,Wunderground v.1.15,2013-09-11 03:25:00,
2013-09-10 22:30:00,68.4,64.0,30.06,SSW,193,0.0,0.0,86,0.00,,,0.00,Wunderground v.1.15,2013-09-11 03:30:00,
2013-09-10 22:35:00,68.3,63.9,30.06,SSW,193,0.0,0.0,86,0.00,,,0.00,Wunderground v.1.15,2013-09-11 03:35:00,
2013-09-10 22:40:00,68.1,63.8,30.06,SSW,193,0.0,0.0,86,0.00,,,0.00,Wunderground v.1.15,2013-09-11 03:40:00,
2013-09-10 22:46:00,68.1,63.8,30.06,SSW,193,0.0,0.0,86,0.00,,,0.00,Wunderground v.1.15,2013-09-11 03:46:00,
2013-09-10 22:51:00,67.9,63.9,30.06,SSW,193,0.0,0.0,87,0.00,,,0.00,Wunderground v.1.15,2013-09-11 03:51:00,
2013-09-10 22:56:00,67.9,64.2,30.06,SSW,193,0.0,0.0,88,0.00,,,0.00,Wunderground v.1.15,2013-09-11 03:56:00,
2013-09-10 23:05:00,67.6,63.9,30.06,SSW,193,0.0,0.0,88,0.00,,,0.00,Wunderground v.1.15,2013-09-11 04:05:00,
2013-09-10 23:10:00,67.4,63.7,30.06,SSW,193,0.0,0.0,88,0.00,,,0.00,Wunderground v.1.15,2013-09-11 04:10:00,
2013-09-10 23:15:00,67.4,63.7,30.06,SSW,193,0.0,0.0,88,0.00,,,0.00,Wunderground v.1.15,2013-09-11 04:15:00,
2013-09-10 23:20:00,67.4,64.0,30.06,SSW,193,0.0,0.0,89,0.00,,,0.00,Wunderground v.1.15,2013-09-11 04:20:00,
2013-09-10 23:25:00,67.3,63.9,30.06,SSW,193,0.0,0.0,89,0.00,,,0.00,Wunderground v.1.15,2013-09-11 04:25:00,
2013-09-10 23:30:00,67.1,63.7,30.06,SSW,193,0.0,0.0,89,0.00,,,0.00,Wunderground v.1.15,2013-09-11 04:30:00,
2013-09-10 23:35:00,66.9,63.6,30.06,SSW,193,0.0,0.0,89,0.00,,,0.00,Wunderground v.1.15,2013-09-11 04:35:00,
2013-09-10 23:40:00,66.8,63.5,30.06,SSW,193,0.0,0.0,89,0.00,,,0.00,Wunderground v.1.15,2013-09-11 04:40:00,
2013-09-10 23:46:00,66.8,63.5,30.06,SSW,193,0.0,0.0,89,0.00,,,0.00,Wunderground v.1.15,2013-09-11 04:46:00,
2013-09-10 23:51:00,66.6,63.6,30.06,SSW,193,0.0,0.0,90,0.00,,,0.00,Wunderground v.1.15,2013-09-11 04:51:00,
2013-09-10 23:56:00,66.4,63.4,30.06,SSW,193,0.0,0.0,90,0.00,,,0.00,Wunderground v.1.15,2013-09-11 04:56:00,